KK7HEZ Weather Reports


Display with metric or nautical units.
time (UTC)temp
F
wind
direction
speed
MPH
gust
MPH
rain 1hr
in
rain 24hr
in
rain mn
in
humidity
%
barometer
mb
20260507012618 57 169 1.0 1.0 0.00 0.00 0.00 83 1021.3
20260507012113 57 159 0.0 0.0 0.00 0.00 0.00 84 1021.4
20260507011612 57 181 0.0 0.0 0.00 0.00 0.00 85 1021.5
20260507011107 57 189 0.0 1.0 0.00 0.00 0.00 85 1021.4
20260507010602 57 180 0.0 0.0 0.00 0.00 0.00 86 1021.5
20260507010058 57 180 0.0 0.0 0.00 0.00 0.00 85 1021.6
20260507005556 57 180 0.0 1.0 0.00 0.00 0.00 85 1021.4
20260507005052 57 158 0.0 1.0 0.00 0.00 0.00 83 1021.7
20260507004549 57 194 2.0 2.0 0.00 0.00 0.00 83 1021.8
20260507004047 57 181 2.0 2.0 0.00 0.00 0.00 82 1021.5
20260507003542 57 143 0.0 0.0 0.00 0.00 0.00 82 1021.5
20260507003038 58 152 1.0 1.0 0.00 0.00 0.00 81 1021.5
20260507002534 58 205 2.0 3.0 0.00 0.00 0.00 81 1021.5
20260507002025 58 157 0.0 1.0 0.00 0.00 0.00 81 1021.6
20260507001521 58 149 0.0 0.0 0.00 0.00 0.00 81 1021.6
20260507001019 58 169 1.0 2.0 0.00 0.00 0.00 81 1021.5
20260507000515 58 213 3.0 3.0 0.00 0.00 0.00 80 1021.4
20260507000011 58 219 3.0 3.0 0.00 0.00 0.00 80 1021.5
20260506235508 58 164 1.0 1.0 0.00 0.00 0.00 80 1021.4
20260506235004 58 193 2.0 2.0 0.00 0.00 0.00 80 1021.5
20260506234502 58 171 0.0 2.0 0.00 0.00 0.00 80 1021.6
20260506233959 58 140 0.0 0.0 0.00 0.00 0.00 80 1021.4
20260506233455 58 123 0.0 0.0 0.00 0.00 0.00 79 1021.4
20260506232951 59 167 1.0 2.0 0.00 0.00 0.00 79 1021.4
20260506232448 59 160 1.0 1.0 0.00 0.00 0.00 78 1021.6
20260506231944 59 158 0.0 0.0 0.00 0.00 0.00 78 1021.6
20260506231441 59 158 1.0 2.0 0.00 0.00 0.00 77 1021.5
20260506230938 58 173 1.0 1.0 0.00 0.00 0.00 78 1021.6
20260506230435 58 175 2.0 2.0 0.00 0.00 0.00 77 1021.6
20260506225931 58 155 1.0 1.0 0.00 0.00 0.00 77 1021.6
20260506225429 58 234 3.0 3.0 0.00 0.00 0.00 76 1021.5
20260506224926 59 198 2.0 3.0 0.00 0.00 0.00 76 1021.5
20260506224423 59 152 0.0 0.0 0.00 0.00 0.00 76 1021.6
20260506223919 59 169 2.0 3.0 0.00 0.00 0.00 76 1021.6
20260506223414 59 206 2.0 2.0 0.00 0.00 0.00 76 1021.6
20260506222906 59 213 1.0 2.0 0.00 0.00 0.00 76 1021.7
20260506222403 59 139 1.0 1.0 0.00 0.00 0.00 75 1021.5
20260506221900 59 136 0.0 1.0 0.00 0.00 0.00 75 1021.7
20260506221357 59 218 3.0 5.0 0.00 0.00 0.00 75 1021.6
20260506220854 59 197 2.0 2.0 0.00 0.00 0.00 74 1021.6
20260506220350 59 127 0.0 0.0 0.00 0.00 0.00 75 1021.4
20260506215847 58 244 6.0 8.0 0.00 0.00 0.00 76 1021.8
20260506215342 59 208 3.0 3.0 0.00 0.00 0.00 75 1021.8
20260506214839 59 122 0.0 0.0 0.00 0.00 0.00 75 1021.7
20260506214336 59 235 4.0 5.0 0.00 0.00 0.00 75 1021.8
20260506213834 59 129 0.0 1.0 0.00 0.00 0.00 76 1021.6
20260506213331 58 149 0.0 0.0 0.00 0.00 0.00 77 1021.8
20260506212828 58 212 2.0 3.0 0.00 0.00 0.00 78 1021.9
20260506212324 58 205 3.0 3.0 0.00 0.00 0.00 76 1021.7
20260506211819 58 161 1.0 1.0 0.00 0.00 0.00 78 1021.6
20260506211315 58 221 3.0 3.0 0.00 0.00 0.00 79 1021.8
20260506210813 58 158 1.0 2.0 0.00 0.00 0.00 79 1022.0
20260506210309 58 223 3.0 3.0 0.00 0.00 0.00 77 1021.9
20260506205807 58 232 6.0 8.0 0.00 0.00 0.00 75 1021.9
20260506205305 58 132 0.0 0.0 0.00 0.00 0.00 78 1021.6
20260506204759 58 152 3.0 3.0 0.00 0.00 0.00 78 1021.7
20260506204257 58 141 0.0 0.0 0.00 0.00 0.00 78 1021.7
20260506203754 57 215 3.0 5.0 0.00 0.00 0.00 80 1021.8
20260506203252 58 158 0.0 1.0 0.00 0.00 0.00 80 1021.7
20260506202748 58 184 3.0 5.0 0.00 0.00 0.00 80 1021.6
20260506202245 58 191 3.0 5.0 0.00 0.00 0.00 79 1021.7
20260506201742 57 143 3.0 5.0 0.00 0.00 0.00 81 1021.7
20260506201238 57 153 1.0 1.0 0.00 0.00 0.00 82 1021.8
20260506200736 57 159 0.0 1.0 0.00 0.00 0.00 82 1021.8
20260506200232 57 152 0.0 0.0 0.00 0.00 0.00 82 1021.7
20260506195728 58 229 4.0 5.0 0.00 0.00 0.00 80 1021.9
20260506195225 58 132 0.0 1.0 0.00 0.00 0.00 78 1021.7
20260506194722 58 212 1.0 2.0 0.00 0.00 0.00 79 1021.7
20260506194219 57 158 0.0 0.0 0.00 0.00 0.00 80 1021.7
20260506193717 57 118 1.0 1.0 0.00 0.00 0.00 81 1021.5
20260506193213 58 167 2.0 3.0 0.00 0.00 0.00 80 1021.5
20260506192710 57 145 0.0 0.0 0.00 0.00 0.00 81 1021.5
20260506192206 57 178 2.0 2.0 0.00 0.00 0.00 82 1021.6
20260506191658 57 184 2.0 2.0 0.00 0.00 0.00 82 1021.3
20260506191153 57 219 2.0 3.0 0.00 0.00 0.00 82 1021.6
20260506190651 57 148 0.0 1.0 0.00 0.00 0.00 82 1021.4
20260506190147 57 168 1.0 2.0 0.00 0.00 0.00 83 1021.4
20260506185645 57 149 0.0 1.0 0.00 0.00 0.00 83 1021.4
20260506185141 57 134 0.0 1.0 0.00 0.00 0.00 84 1021.3
20260506184639 57 187 1.0 2.0 0.00 0.00 0.00 85 1021.3
20260506184136 57 242 2.0 3.0 0.00 0.00 0.00 85 1021.3
20260506183632 56 132 0.0 0.0 0.00 0.00 0.00 85 1021.4
20260506183128 57 189 3.0 3.0 0.00 0.00 0.00 85 1021.4
20260506182626 57 149 0.0 0.0 0.00 0.00 0.00 86 1021.4
20260506182122 57 179 1.0 2.0 0.00 0.00 0.00 86 1020.9
20260506181620 56 129 0.0 0.0 0.00 0.00 0.00 87 1021.3
20260506181117 56 157 0.0 0.0 0.00 0.00 0.00 87 1021.1
20260506180614 56 151 0.0 0.0 0.00 0.00 0.00 88 1021.3
20260506180110 55 123 0.0 0.0 0.00 0.00 0.00 89 1021.0
20260506175607 55 167 1.0 1.0 0.00 0.00 0.00 90 1021.1
20260506175103 55 152 0.0 1.0 0.00 0.00 0.00 89 1021.5
20260506174602 56 122 0.0 1.0 0.00 0.00 0.00 89 1021.4
20260506174058 55 156 1.0 2.0 0.00 0.00 0.00 90 1021.1
20260506173556 55 161 0.0 1.0 0.00 0.00 0.00 90 1020.8
20260506173052 55 129 0.0 0.0 0.00 0.00 0.00 90 1020.8
20260506172549 55 131 0.0 0.0 0.00 0.00 0.00 90 1020.8
20260506172046 55 152 1.0 1.0 0.00 0.00 0.00 90 1021.1
20260506171543 55 157 0.0 0.0 0.00 0.00 0.00 91 1020.9
20260506171040 55 158 0.0 1.0 0.00 0.00 0.00 90 1021.3
20260506170538 55 186 2.0 2.0 0.00 0.00 0.00 89 1021.1
20260506170030 55 130 0.0 0.0 0.00 0.00 0.00 89 1021.3
20260506165528 55 169 1.0 2.0 0.00 0.00 0.00 90 1020.9
20260506165024 55 136 0.0 0.0 0.00 0.00 0.00 89 1021.0
20260506164521 55 144 0.0 1.0 0.00 0.00 0.00 90 1021.1
20260506164018 55 149 0.0 0.0 0.00 0.00 0.00 90 1020.9
20260506163514 55 157 0.0 0.0 0.00 0.00 0.00 90 1021.0
20260506163010 55 140 0.0 0.0 0.00 0.00 0.00 90 1021.0
20260506162506 55 141 0.0 0.0 0.00 0.00 0.00 90 1021.0
20260506161957 55 181 2.0 2.0 0.00 0.00 0.00 91 1021.0
20260506161455 55 141 0.0 0.0 0.00 0.00 0.00 91 1020.8
20260506160952 55 165 0.0 0.0 0.00 0.00 0.00 91 1020.7
20260506160449 55 174 1.0 1.0 0.00 0.00 0.00 91 1020.9
20260506155946 55 166 0.0 1.0 0.00 0.00 0.00 91 1020.4
20260506155445 55 147 0.0 0.0 0.00 0.00 0.00 91 1020.7
20260506153617 55 149 0.0 0.0 0.00 0.00 0.00 91 1020.3
20260506153114 55 143 0.0 0.0 0.00 0.00 0.00 91 1020.4
20260506152611 55 126 0.0 0.0 0.00 0.00 0.00 91 1020.6
20260506152109 54 163 0.0 1.0 0.00 0.00 0.00 91 1020.3
20260506151607 54 133 0.0 0.0 0.00 0.00 0.00 92 1020.5
20260506151104 54 121 0.0 0.0 0.00 0.00 0.00 93 1020.7
20260506150601 54 180 1.0 2.0 0.00 0.00 0.00 92 1020.7
20260506150057 54 136 0.0 0.0 0.00 0.00 0.00 92 1020.9
20260506145554 54 208 2.0 2.0 0.00 0.00 0.00 91 1020.8
20260506145052 54 167 0.0 0.0 0.00 0.00 0.00 91 1020.5
20260506144548 55 152 0.0 1.0 0.00 0.00 0.00 91 1020.2
20260506144045 54 158 0.0 0.0 0.00 0.00 0.00 91 1020.2
20260506143543 54 158 0.0 1.0 0.00 0.00 0.00 91 1020.3
20260506143041 54 142 0.0 0.0 0.00 0.00 0.00 91 1020.5
20260506142538 54 140 0.0 0.0 0.00 0.00 0.00 92 1020.4
20260506142037 54 140 0.0 0.0 0.00 0.00 0.00 92 1020.4
20260506141534 54 157 0.0 0.0 0.00 0.00 0.00 92 1020.3
20260506141032 54 157 0.0 0.0 0.00 0.00 0.00 92 1020.4
20260506140529 54 172 2.0 2.0 0.00 0.00 0.00 92 1020.4
20260506140027 54 151 0.0 0.0 0.00 0.00 0.00 92 1020.2
20260506135523 54 159 0.0 0.0 0.00 0.00 0.00 92 1020.3
20260506135019 54 148 0.0 0.0 0.00 0.00 0.00 92 1020.1
20260506134516 54 142 0.0 1.0 0.00 0.00 0.00 92 1020.3
20260506134012 54 172 2.0 2.0 0.00 0.00 0.00 92 1020.3
20260506133509 54 144 0.0 0.0 0.00 0.00 0.00 92 1020.3
20260506133006 54 158 1.0 1.0 0.00 0.00 0.00 92 1020.4
20260506132503 54 155 0.0 0.0 0.00 0.00 0.00 92 1020.2
20260506132000 54 155 0.0 0.0 0.00 0.00 0.00 92 1020.1
20260506131458 54 155 0.0 0.0 0.00 0.00 0.00 92 1020.1
20260506130954 54 156 0.0 0.0 0.00 0.00 0.00 92 1019.9
20260506130450 54 156 0.0 0.0 0.00 0.00 0.00 92 1020.1
20260506125948 54 140 0.0 0.0 0.00 0.00 0.00 92 1020.1
20260506125447 54 149 0.0 0.0 0.00 0.00 0.00 92 1019.7
20260506124944 54 160 0.0 0.0 0.00 0.00 0.00 92 1019.6
20260506124441 54 175 2.0 2.0 0.00 0.00 0.00 92 1019.6
20260506123939 54 131 0.0 0.0 0.00 0.00 0.00 92 1019.6
20260506123438 54 139 0.0 0.0 0.00 0.00 0.00 92 1019.6
20260506122935 54 131 0.0 1.0 0.00 0.00 0.00 92 1019.6
20260506122431 54 131 0.0 0.0 0.00 0.00 0.00 92 1019.7
20260506121930 54 131 0.0 0.0 0.00 0.00 0.00 92 1019.6
20260506121426 54 131 0.0 0.0 0.00 0.00 0.00 92 1019.6
20260506120923 54 131 0.0 0.0 0.00 0.00 0.00 92 1019.5
20260506120421 54 144 0.0 0.0 0.00 0.00 0.00 92 1019.4
20260506115918 54 124 0.0 0.0 0.00 0.00 0.00 92 1019.5
20260506115416 54 124 0.0 0.0 0.00 0.00 0.00 92 1019.8
20260506114914 54 124 0.0 0.0 0.00 0.00 0.00 92 1019.5
20260506114411 54 124 0.0 0.0 0.00 0.00 0.00 92 1019.6
20260506113910 54 124 0.0 0.0 0.00 0.00 0.00 92 1019.5
20260506113407 54 124 0.0 0.0 0.00 0.00 0.00 92 1019.4
20260506112903 54 126 0.0 0.0 0.00 0.00 0.00 92 1019.4
20260506112401 54 129 0.0 0.0 0.00 0.00 0.00 92 1019.4
20260506111858 54 129 0.0 0.0 0.00 0.00 0.00 92 1019.3
20260506111356 54 156 0.0 0.0 0.00 0.00 0.00 92 1019.2
20260506110853 54 157 0.0 0.0 0.00 0.00 0.00 92 1019.1
20260506110350 54 131 0.0 0.0 0.00 0.00 0.00 92 1019.1
20260506105847 53 127 0.0 0.0 0.00 0.00 0.00 93 1018.8
20260506105343 53 124 1.0 1.0 0.00 0.00 0.00 93 1019.0
20260506104841 53 180 1.0 2.0 0.00 0.00 0.00 94 1019.0
20260506104339 53 177 0.0 0.0 0.00 0.00 0.00 94 1018.9
20260506103836 53 177 0.0 0.0 0.00 0.00 0.00 95 1018.9
20260506103333 53 176 0.0 0.0 0.00 0.00 0.00 95 1018.6
20260506102831 53 177 0.0 0.0 0.00 0.00 0.00 95 1018.7
20260506102329 53 176 0.0 0.0 0.00 0.00 0.00 96 1018.7
20260506101826 53 176 0.0 0.0 0.00 0.00 0.00 96 1018.8
20260506101321 52 177 0.0 0.0 0.00 0.00 0.00 96 1019.0
20260506100820 52 176 0.0 0.0 0.00 0.00 0.00 96 1018.5
20260506100318 52 177 0.0 0.0 0.00 0.00 0.00 96 1018.7
20260506095816 52 176 0.0 0.0 0.00 0.00 0.00 96 1018.7
20260506095313 52 177 0.0 0.0 0.00 0.00 0.00 96 1018.7
20260506094809 52 177 0.0 0.0 0.00 0.00 0.00 95 1018.4
20260506094308 52 177 0.0 0.0 0.00 0.00 0.00 95 1018.6
20260506093806 52 176 0.0 0.0 0.00 0.00 0.00 95 1018.6
20260506093302 52 177 0.0 0.0 0.00 0.00 0.00 95 1018.5
20260506092801 52 177 0.0 0.0 0.00 0.00 0.00 95 1018.5
20260506092258 52 177 0.0 0.0 0.00 0.00 0.00 95 1018.4
20260506091755 52 176 0.0 0.0 0.00 0.00 0.00 95 1018.6
20260506091253 52 177 0.0 0.0 0.00 0.00 0.00 95 1018.4
20260506090750 52 176 0.0 0.0 0.00 0.00 0.00 95 1018.3
20260506090247 52 177 0.0 0.0 0.00 0.00 0.00 95 1018.4
20260506085744 53 177 0.0 0.0 0.00 0.00 0.00 95 1018.4
20260506085240 53 177 0.0 0.0 0.00 0.00 0.00 95 1018.4
20260506084737 53 176 0.0 0.0 0.00 0.00 0.00 95 1018.5
20260506084233 53 177 0.0 0.0 0.00 0.00 0.00 95 1018.4
20260506083730 53 177 0.0 0.0 0.00 0.00 0.00 95 1018.3
20260506083228 53 176 0.0 0.0 0.00 0.00 0.00 94 1018.2
20260506082725 53 176 0.0 0.0 0.00 0.00 0.00 94 1018.2
20260506082220 53 176 0.0 0.0 0.00 0.00 0.00 94 1018.0
20260506081719 53 176 0.0 0.0 0.00 0.00 0.00 94 1018.0
20260506081216 53 176 0.0 0.0 0.00 0.00 0.00 94 1017.9
20260506080714 53 176 0.0 0.0 0.00 0.00 0.00 94 1018.0
20260506080210 53 176 0.0 0.0 0.00 0.00 0.00 94 1017.7
20260506073154 54 176 0.0 0.0 0.00 0.00 0.00 93 1017.9
20260506072650 54 176 0.0 0.0 0.00 0.00 0.00 93 1017.6
20260506072148 54 176 0.0 0.0 0.00 0.00 0.00 93 1017.6
20260506071646 54 176 0.0 0.0 0.00 0.00 0.00 93 1017.4
20260506071143 54 176 0.0 0.0 0.00 0.00 0.00 93 1017.4
20260506070640 54 176 0.0 0.0 0.00 0.00 0.00 93 1017.5
20260506070137 54 176 0.0 0.0 0.00 0.00 0.00 93 1017.5
20260506062114 55 176 0.0 0.0 0.00 0.00 0.00 93 1017.2
20260506061610 55 176 0.0 0.0 0.00 0.00 0.00 93 1017.2
20260506061108 55 176 0.0 0.0 0.00 0.00 0.00 93 1017.2
20260506060606 55 176 0.0 0.0 0.00 0.00 0.00 92 1017.3
20260506051035 56 176 0.0 0.0 0.00 0.00 0.00 92 1016.7
20260506050533 56 176 0.0 0.0 0.00 0.00 0.00 91 1016.6
20260506045023 57 176 0.0 0.0 0.00 0.00 0.00 91 1016.4
20260506044516 57 176 0.0 0.0 0.00 0.00 0.00 91 1016.4
20260506044012 57 176 0.0 0.0 0.00 0.00 0.00 91 1016.4
20260506043509 57 176 0.0 0.0 0.00 0.00 0.00 91 1016.4
20260506043008 57 176 0.0 0.0 0.00 0.00 0.00 90 1016.3
20260506042507 57 176 0.0 0.0 0.00 0.00 0.00 90 1016.4
20260506042004 57 176 0.0 0.0 0.00 0.00 0.00 90 1016.2
20260506041503 57 176 0.0 0.0 0.00 0.00 0.00 90 1016.2
20260506040959 57 176 0.0 0.0 0.00 0.00 0.00 90 1016.3
20260506040457 57 176 0.0 0.0 0.00 0.00 0.00 90 1016.4
20260506035952 57 176 0.0 0.0 0.00 0.00 0.00 90 1016.4
20260506035450 57 176 0.0 0.0 0.00 0.00 0.00 89 1016.2
20260506034946 57 176 0.0 0.0 0.00 0.00 0.00 89 1016.2
20260506034444 58 176 0.0 0.0 0.00 0.00 0.00 89 1016.1
20260506033940 58 176 0.0 0.0 0.00 0.00 0.00 88 1016.4
20260506033438 59 176 0.0 0.0 0.00 0.00 0.00 88 1016.2
20260506032934 59 176 0.0 0.0 0.00 0.00 0.00 87 1016.1
20260506032432 59 176 0.0 0.0 0.00 0.00 0.00 86 1016.1
20260506031928 60 176 0.0 0.0 0.00 0.00 0.00 84 1015.9
20260506031426 62 176 0.0 0.0 0.00 0.00 0.00 83 1015.8
20260506030923 62 176 0.0 0.0 0.00 0.00 0.00 82 1016.1
20260506030421 63 176 0.0 0.0 0.00 0.00 0.00 81 1016.2
20260506025917 63 177 0.0 0.0 0.00 0.00 0.00 80 1015.9
20260506025415 64 177 0.0 0.0 0.00 0.00 0.00 78 1015.8
20260506024911 65 177 0.0 0.0 0.00 0.00 0.00 75 1016.0
20260506024408 65 177 0.0 0.0 0.00 0.00 0.00 76 1015.6
20260506023904 65 177 0.0 0.0 0.00 0.00 0.00 74 1015.7
20260506023401 66 177 0.0 0.0 0.00 0.00 0.00 75 1015.6
20260506022858 66 177 0.0 0.0 0.00 0.00 0.00 74 1015.6
20260506022356 67 177 0.0 0.0 0.00 0.00 0.00 73 1015.8
20260506021853 68 168 0.0 0.0 0.00 0.00 0.00 70 1015.7
20260506021350 68 195 1.0 2.0 0.00 0.00 0.00 68 1015.5
20260506020847 68 168 1.0 1.0 0.00 0.00 0.00 68 1015.7
20260506020345 69 197 2.0 2.0 0.00 0.00 0.00 67 1015.7
20260506015842 69 158 0.0 0.0 0.00 0.00 0.00 67 1015.5
20260506015339 69 193 0.0 1.0 0.00 0.00 0.00 67 1015.6
20260506014836 69 192 0.0 1.0 0.00 0.00 0.00 67 1015.6
20260506014333 69 154 0.0 0.0 0.00 0.00 0.00 66 1015.5
20260506013829 70 172 0.0 1.0 0.00 0.00 0.00 66 1015.5
20260506013327 68 148 1.0 1.0 0.00 0.00 0.00 69 1015.6
20260506012823 68 123 0.0 0.0 0.00 0.00 0.00 70 1015.7